Boundary Cnty AP, Bonners Fer, ID

7:32 PM PDT on April 22, 2018 (GMT -0700)
Boundary Cnty AP, Bonners Fer

Weather History for K65S - August, 2014

Change the Weather History Date:

Monday, August 4, 2014

  Actual Average (KSZT) Record (KSZT)
Temperature  
Mean Temperature 71 °F -  
Max Temperature 87 °F 84 °F 100 °F (1961)
Min Temperature 55 °F 48 °F 36 °F (1934)
Cooling Degree Days 6    
Growing Degree Days 21 (Base 50)    
Moisture  
Dew Point 52 °F    
Average Humidity 54    
Maximum Humidity 82    
Minimum Humidity 18    
Precipitation  
Precipitation 0.00 in - - ()
Sea Level Pressure  
Sea Level Pressure 30.00 in    
Wind  
Wind Speed 1 mph (NW)    
Max Wind Speed 13 mph    
Max Gust Speed -    
Visibility 10 miles    
Events      
Averages and records for this station are not official NWS values.
T = Trace of Precipitation, MM = Missing Value Source: NWS Daily Summary

Daily Weather History Graph

Daily Weather History Graph

Search for Another Location

Airport or City:

Astronomy

Aug. 04, 2014 Rise Set
Actual Time 5:23 AM PDT 8:18 PM PDT
Civil Twilight 4:46 AM PDT 8:54 PM PDT
Nautical Twilight 3:59 AM PDT 9:41 PM PDT
Astronomical Twilight 3:01 AM PDT 10:38 PM PDT
Moon 2:33 PM PDT (8/4) No Moon Set
Length of Visible Light 16h 08m
Length of Day
14h 55m
First Quarter, 58% of the Moon is Illuminated
Aug 4
First Quarter
Aug 10
Full
Aug 17
Last Quarter
Aug 25
New
Sep 2
First Quarter

Hourly Weather History & Observations

Time (PDT) Temp. Heat Index Dew Point Humidity Pressure Visibility Wind Dir Wind Speed Gust Speed Precip Events Conditions
12:15 AM 64.4 °F - 53.6 °F 68% 30.04 in 10.0 mi Calm Calm - N/A   Clear
12:35 AM 62.6 °F - 53.6 °F 72% 30.04 in 10.0 mi Calm Calm - N/A   Clear
12:55 AM 62.6 °F - 53.6 °F 72% 30.05 in 10.0 mi Calm Calm - N/A   Clear
1:15 AM 59.0 °F - 53.6 °F 82% 30.04 in 10.0 mi Calm Calm - N/A   Clear
1:35 AM 60.8 °F - 51.8 °F 72% 30.04 in 10.0 mi Calm Calm - N/A   Clear
1:55 AM 60.8 °F - 53.6 °F 77% 30.04 in 10.0 mi Calm Calm - N/A   Clear
2:15 AM 60.8 °F - 51.8 °F 72% 30.04 in 10.0 mi Calm Calm - N/A   Clear
2:35 AM 57.2 °F - 50.0 °F 77% 30.05 in 10.0 mi Calm Calm - N/A   Clear
2:55 AM 55.4 °F - 50.0 °F 82% 30.05 in 10.0 mi NNE 3.5 mph - N/A   Clear
3:15 AM 57.2 °F - 50.0 °F 77% 30.06 in 10.0 mi Calm Calm - N/A   Clear
3:35 AM 57.2 °F - 50.0 °F 77% 30.06 in 10.0 mi Calm Calm - N/A   Clear
3:55 AM 57.2 °F - 50.0 °F 77% 30.05 in 10.0 mi Calm Calm - N/A   Clear
4:15 AM 59.0 °F - 50.0 °F 72% 30.06 in 10.0 mi Calm Calm - N/A   Clear
4:35 AM 57.2 °F - 50.0 °F 77% 30.06 in 10.0 mi Calm Calm - N/A   Clear
4:55 AM 57.2 °F - 50.0 °F 77% 30.06 in 10.0 mi Calm Calm - N/A   Clear
5:15 AM 55.4 °F - 50.0 °F 82% 30.06 in 10.0 mi Calm Calm - N/A   Clear
5:35 AM 55.4 °F - 50.0 °F 82% 30.07 in 10.0 mi Calm Calm - N/A   Clear
5:55 AM 55.4 °F - 50.0 °F 82% 30.08 in 10.0 mi Calm Calm - N/A   Clear
6:15 AM 59.0 °F - 50.0 °F 72% 30.08 in 10.0 mi Calm Calm - N/A   Clear
6:35 AM 57.2 °F - 50.0 °F 77% 30.08 in 10.0 mi Calm Calm - N/A   Clear
6:55 AM 59.0 °F - 51.8 °F 77% 30.09 in 10.0 mi Calm Calm - N/A   Clear
7:15 AM 62.6 °F - 53.6 °F 72% 30.09 in 10.0 mi Calm Calm - N/A   Clear
7:35 AM 62.6 °F - 51.8 °F 68% 30.09 in 10.0 mi Calm Calm - N/A   Clear
7:55 AM 64.4 °F - 50.0 °F 59% 30.09 in 10.0 mi Calm Calm - N/A   Clear
8:15 AM 64.4 °F - 50.0 °F 59% 30.09 in 10.0 mi Calm Calm - N/A   Clear
8:55 AM 68.0 °F - 50.0 °F 52% 30.08 in 10.0 mi Calm Calm - N/A   Clear
9:15 AM 69.8 °F - 53.6 °F 56% 30.07 in 10.0 mi Calm Calm - N/A   Clear
9:35 AM 69.8 °F - 53.6 °F 56% 30.07 in 10.0 mi SSE 3.5 mph - N/A   Clear
9:55 AM 71.6 °F - 53.6 °F 53% 30.06 in 10.0 mi Calm Calm - N/A   Clear
10:15 AM 73.4 °F - 53.6 °F 50% 30.06 in 10.0 mi NW 3.5 mph - N/A   Clear
10:35 AM 73.4 °F - 53.6 °F 50% 30.05 in 10.0 mi South 4.6 mph - N/A   Clear
10:55 AM 75.2 °F - 53.6 °F 47% 30.04 in 10.0 mi SSW 4.6 mph - N/A   Clear
11:15 AM 77.0 °F - 53.6 °F 44% 30.03 in 10.0 mi Calm Calm - N/A   Clear
11:35 AM 77.0 °F - 55.4 °F 47% 30.02 in 10.0 mi Calm Calm - N/A   Clear
11:55 AM 78.8 °F - 55.4 °F 44% 30.01 in 10.0 mi South 3.5 mph - N/A   Clear
12:15 PM 80.6 °F 80.5 °F 55.4 °F 42% 30.00 in 10.0 mi Calm Calm - N/A   Clear
12:35 PM 82.4 °F 81.7 °F 55.4 °F 39% 30.00 in 10.0 mi South 3.5 mph - N/A   Clear
12:55 PM 84.2 °F 83.0 °F 55.4 °F 37% 29.99 in 10.0 mi SSW 3.5 mph - N/A   Clear
1:15 PM 84.2 °F 83.0 °F 55.4 °F 37% 29.98 in 10.0 mi Calm Calm - N/A   Clear
1:35 PM 86.0 °F 84.5 °F 55.4 °F 35% 29.97 in 10.0 mi Calm Calm - N/A   Clear
1:55 PM 87.8 °F 86.1 °F 55.4 °F 33% 29.96 in 10.0 mi Calm Calm - N/A   Clear
2:15 PM 84.2 °F 82.8 °F 53.6 °F 35% 29.97 in 10.0 mi NNW 12.7 mph - N/A   Clear
2:35 PM 80.6 °F - 51.8 °F 37% 29.97 in 10.0 mi North 12.7 mph - N/A   Clear
2:55 PM 80.6 °F 80.3 °F 53.6 °F 39% 29.96 in 10.0 mi North 6.9 mph - N/A   Clear
3:15 PM 82.4 °F 81.4 °F 53.6 °F 37% 29.96 in 10.0 mi NW 5.8 mph - N/A   Clear
3:35 PM 84.2 °F - 48.2 °F 29% 29.95 in 10.0 mi Calm Calm - N/A   Clear
3:55 PM 82.4 °F 81.7 °F 55.4 °F 39% 29.95 in 10.0 mi Calm Calm - N/A   Clear
4:15 PM 84.2 °F 82.8 °F 53.6 °F 35% 29.94 in 10.0 mi South 3.5 mph - N/A   Clear
4:35 PM 84.2 °F 82.8 °F 53.6 °F 35% 29.94 in 10.0 mi South 4.6 mph - N/A   Clear
4:55 PM 86.0 °F - 50.0 °F 29% 29.93 in 10.0 mi South 3.5 mph - N/A   Clear
5:15 PM 86.0 °F - 48.2 °F 27% 29.92 in 10.0 mi South 3.5 mph - N/A   Clear
5:35 PM 86.0 °F - 42.8 °F 22% 29.92 in 10.0 mi Calm Calm - N/A   Clear
5:55 PM 87.8 °F - 39.2 °F 18% 29.91 in 10.0 mi Calm Calm - N/A   Clear
6:15 PM 87.8 °F - 46.4 °F 24% 29.91 in 10.0 mi Calm Calm - N/A   Clear
6:35 PM 84.2 °F 83.5 °F 57.2 °F 40% 29.91 in 10.0 mi NW 4.6 mph - N/A   Clear
6:55 PM 84.2 °F 83.0 °F 55.4 °F 37% 29.91 in 10.0 mi WNW 5.8 mph - N/A   Clear
7:15 PM 82.4 °F 82.5 °F 59.0 °F 45% 29.91 in 10.0 mi NW 3.5 mph - N/A   Clear
7:35 PM 80.6 °F 80.8 °F 57.2 °F 45% 29.91 in 10.0 mi NNW 3.5 mph - N/A   Clear
7:55 PM 77.0 °F - 57.2 °F 50% 29.91 in 10.0 mi NNW 5.8 mph - N/A   Clear
8:15 PM 77.0 °F - 55.4 °F 47% 29.92 in 10.0 mi NNW 9.2 mph - N/A   Clear
8:35 PM 73.4 °F - 57.2 °F 57% 29.92 in 10.0 mi North 9.2 mph - N/A   Clear
8:55 PM 73.4 °F - 55.4 °F 53% 29.93 in 10.0 mi North 10.4 mph - N/A   Clear
9:15 PM 73.4 °F - 53.6 °F 50% 29.94 in 10.0 mi North 4.6 mph - N/A   Clear
9:35 PM 73.4 °F - 51.8 °F 47% 29.94 in 10.0 mi NNE 10.4 mph - N/A   Clear
10:15 PM 71.6 °F - 51.8 °F 50% 29.95 in 10.0 mi NNE 5.8 mph - N/A   Clear
10:35 PM 71.6 °F - 51.8 °F 50% 29.95 in 10.0 mi NNW 5.8 mph - N/A   Clear
10:55 PM 71.6 °F - 51.8 °F 50% 29.95 in 10.0 mi Calm Calm - N/A   Clear
11:15 PM 69.8 °F - 53.6 °F 56% 29.96 in 10.0 mi Calm Calm - N/A   Clear
11:35 PM 68.0 °F - 51.8 °F 56% 29.96 in 10.0 mi Calm Calm - N/A   Clear
11:55 PM 68.0 °F - 51.8 °F 56% 29.97 in 10.0 mi Calm Calm - N/A   Clear